Inquirer Daily News

Weather

Get conditions and forecasts for any City, State, ZIP code or Country:  
Northeast Philadelphia, PA
on Friday, February 8, 2013

Friday
Previous Day Next Day
Daily Summary
 ActualAverage (KTTN)Record (KTTN)
Temperature
Mean Temperature °F 33°F  
Max Temperature 39°F 41°F 62°F (1933)
Min Temperature 32°F 25°F -8°F (1934)
Degree Days
Heating Degree Days 30 32  
Month to date heating degree days 262  
Since 1 July heating degree days 3208  
Cooling Degree Days 0 0  
Month to date cooling degree days 0  
Year to date cooling degree days 0  
Moisture
Dew Point 31°F   
Average Humidity 88    
Maximum Humidity 97    
Minimum Humidity 70    
Precipitation
Precipitation 0.28 in 0.09 in 0.78 in (1900)
Month to date precipitation 0.57  
Year to date precipitation 3.73  
Wind
Wind Speed 13 mph   
Max Wind Speed 22 mph   
Max Gust Speed 30 mph   
Visibility 6 miles   
Events Rain , Snow   

Key: T is trace of precipitation, MM is missing value
Source: NWS Daily Summary
Time(EST)TemperatureDew PointHumidity Pressure Visibility Wind DirectionWind SpeedGust SpeedPrecipitationEvents Conditions
12:54 AM 34.0°F 25.0°F 70% 30.27 in 10.0 miles ENE 10.4 mph - N/A   Overcast
1:54 AM 35.1°F 28.0°F 76% 30.23 in 10.0 miles ENE 8.1 mph - N/A   Overcast
2:54 AM 35.6°F 28.4°F 75% 30.19 in 10.0 miles ENE 9.2 mph - N/A   Overcast
3:54 AM 36.0°F 30.9°F 82% 30.15 in 10.0 miles ENE 11.5 mph - N/A   Overcast
4:54 AM 37.0°F 33.1°F 86% 30.13 in 10.0 miles NE 8.1 mph - N/A   Overcast
5:54 AM 39.0°F 34.0°F 82% 30.09 in 10.0 miles NE 13.8 mph - N/A   Overcast
6:46 AM 37.4°F 35.6°F 93% 30.07 in 10.0 miles NE 15.0 mph - 0.00 in Rain Light Rain
6:54 AM 37.4°F 33.8°F 87% 30.07 in 9.0 miles NE 15.0 mph - N/A Rain Light Rain
7:54 AM 35.1°F 33.1°F 92% 30.05 in 6.0 miles NE 15.0 mph - 0.02 in Rain Light Rain
8:54 AM 35.1°F 33.1°F 92% 30.01 in 6.0 miles NE 15.0 mph - 0.03 in Rain Light Rain
9:54 AM 36.0°F 34.0°F 93% 29.96 in 6.0 miles NE 18.4 mph - 0.04 in Rain Light Rain
10:54 AM 36.0°F 34.0°F 93% 29.92 in 6.0 miles NE 17.3 mph - 0.04 in Rain Light Rain
11:54 AM 37.0°F 34.0°F 89% 29.86 in 10.0 miles NE 21.9 mph 28.8 mph 0.03 in Rain Light Rain
12:54 PM 36.0°F 35.1°F 97% 29.79 in 7.0 miles NE 20.7 mph - 0.03 in Rain Light Rain
1:54 PM 35.1°F - N/A% 29.75 in 8.0 miles NNE 16.1 mph 24.2 mph 0.02 in Rain Light Rain
2:54 PM 35.1°F - N/A% 29.73 in 10.0 miles NE 19.6 mph 29.9 mph 0.02 in Rain Light Rain
3:54 PM 35.1°F 30.0°F 82% 29.71 in 10.0 miles NNE 13.8 mph 25.3 mph 0.00 in   Overcast
4:54 PM 35.1°F 30.0°F 82% 29.70 in 10.0 miles NNE 15.0 mph 26.5 mph N/A   Overcast
5:40 PM 33.8°F 30.2°F 87% 29.69 in 10.0 miles NNE 12.7 mph 20.7 mph N/A   Overcast
5:54 PM 34.0°F 30.0°F 85% 29.70 in 10.0 miles North 11.5 mph 19.6 mph N/A   Overcast
6:54 PM 34.0°F 30.0°F 85% 29.71 in 10.0 miles NNW 11.5 mph - N/A   Overcast
7:51 PM 33.8°F 30.2°F 87% 29.74 in 2.5 miles NW 10.4 mph - 0.01 in Snow Light Snow
7:54 PM 33.1°F 30.9°F 92% 29.74 in 2.5 miles NW 9.2 mph - 0.02 in Snow Light Snow
8:05 PM 33.8°F 30.2°F 87% 29.74 in 1.8 miles NW 10.4 mph - 0.00 in Snow Light Snow
8:19 PM 32.0°F 30.2°F 93% 29.74 in 0.8 miles NW 13.8 mph 19.6 mph 0.01 in Snow Light Snow
8:35 PM 32.0°F 30.2°F 93% 29.75 in 1.0 miles NW 16.1 mph 23.0 mph 0.01 in Snow Light Snow
8:49 PM 32.0°F 30.2°F 93% 29.75 in 1.2 miles NW 15.0 mph - 0.02 in Snow Light Snow
8:54 PM 32.0°F 30.9°F 96% 29.75 in 1.2 miles NW 12.7 mph 21.9 mph 0.02 in Snow Light Snow
9:54 PM 32.0°F 30.0°F 92% 29.77 in 1.5 miles NNW 19.6 mph 25.3 mph 0.01 in Snow Light Snow
10:06 PM 32.0°F 30.2°F 93% 29.77 in 1.5 miles North 19.6 mph 24.2 mph 0.00 in Snow Light Snow
10:23 PM 32.0°F 30.2°F 93% 29.76 in 2.0 miles North 17.3 mph - 0.00 in Snow Light Snow
10:54 PM 32.0°F 28.9°F 88% 29.78 in 3.0 miles North 15.0 mph - 0.00 in Snow Light Snow
11:10 PM 32.0°F 30.2°F 93% 29.77 in 3.0 miles North 11.5 mph - 0.00 in Snow Light Snow
11:54 PM 33.1°F 30.0°F 89% 29.80 in 3.0 miles NNW 16.1 mph 21.9 mph 0.00 in Snow Light Snow
Astronomy
Sunrise:07:01 AM (EST) Moon Rise:05:27 AM (EST)2/8
Sunset:05:27 PM (EST) Moon Set:03:58 PM (EST)2/8
Moon Phase
Feb. 08 Feb. 10 Feb. 17 Feb. 25 Mar. 04

Copyright © 2014 The Weather Underground, Inc.